Location: Arrien
(43.3167°N, 0.1500°W)
Time: 12:50:34
(UTC+00:00)

Cosmos 2082 - Pass Details

Date: 24 May 2022
Orbit: 835 x 853 km, 71.0° (Epoch: 28 June)

Event Time Altitude Azimuth Distance (km) Brightness Sun altitude
Rises 20:20:14 0° 341° (NNW) 3,402 8.0 -8.7°
Reaches altitude 10° 20:22:53 10° 349° (N) 2,462 7.0 -9.1°
Maximum altitude 20:28:06 37° 57° (ENE) 1,273 4.5 -9.8°
Enters shadow 20:32:40 13° 121° (ESE) 2,238 5.3 -10.4°
